{"data":{"norad_id":56141,"epoch":"2026-05-25T01:57:50.880096Z","epoch_age_seconds":63919,"freshness":"FRESH","line1":"1 56141U 23046BB  26145.08183889 -.00000036  00000+0  82141-5 0  9995","line2":"2 56141  43.0048  75.5310 0001083 253.9048 106.1684 15.27576480173880","mean_motion":15.2757648,"eccentricity":0.0001083,"inclination_deg":43.0048,"raan_deg":75.531,"arg_perigee_deg":253.9048,"mean_anomaly_deg":106.1684,"bstar":8.2141e-6,"rev_number":17388,"period_min":94.266965932861,"perigee_km":482.31656861051,"apogee_km":483.80270380191,"semimajor_km":6861.1966362062,"source":"CELESTRAK","updated_at":"2026-05-25T13:38:17.962695Z"}}